Content
SEND FEEDBACK

Daily
Averages
Monthly
Summary
United States of America

NEW YORK - CENTRAL PARK, NEW YORK


Home > North America > United States > New York
Elevation: 14 feet     Latitude: 40 47N     Longitude: 073 58W

WEATHER
 
SELECT A DAY
Number of Records: 148,218;   Date Range: 11/1/95 - 8/30/14
 
SHARE

PRINT THIS DATA

[ ← Previous Day ]
WEATHER ALMANAC - JULY 6, 2013
[ Next Day → ]
[ °C ]   °F
Weather ElementAverageHighLow
Temperature85.2 °F91 °F (2:51 pm)78.1 °F (4:51 am)
Dewpoint70.2 °F72 °F (5:51 am)66.9 °F (4:51 pm)
Humidity61.9 %81 % (5:51 am)45 % (4:51 pm)
Barometer30.09 in30.14 in (6:51 am)30.03 in (7:51 pm)
Wind Speed4.3 mph8.1 mph (5:51 pm)
Wind Gust19.6 mph (4:51 pm)
Weather ElementAverage
Visibility9.8 mi
Wind DirectionNE (48.3 °)

Weather ElementTotal
Precipitation---
Cooling Degree Days19.6 (Base 65)
Growing Degree Days34.6 (Base 50)
Averaged from 23 records on July 6, 2013
WEATHER CONDITIONS BREAKOUT
WIND DIRECTION BREAKOUT
WEATHER BY HOUR - JULY 6, 2013
[ °C ]   °F
Local TimeTemperatureDewpointHumidityBarometerVisibilityWind DirectionWind SpeedGust SpeedPrecipitationEventsConditions
1:51 AM81.0 °F71.1 °F72 %30.13 in10.0 miNorthClear
2:51 AM80.1 °F71.1 °F74 %30.13 in10.0 miVariable3.5 mphClear
3:51 AM80.1 °F71.1 °F74 %30.13 in10.0 miVariable3.5 mph17.3 mphClear
4:51 AM78.1 °F71.1 °F79 %30.13 in10.0 miVariable3.5 mphClear
5:51 AM78.1 °F72.0 °F81 %30.13 in9.0 miWest (270°)6.9 mphClear
6:51 AM78.1 °F72.0 °F81 %30.14 in9.0 miVariable6.9 mphClear
7:51 AM79.0 °F72.0 °F79 %30.14 in9.0 miVariable3.5 mphClear
8:51 AM81.0 °F72.0 °F74 %30.14 in9.0 miVariable3.5 mphClear
9:51 AM84.0 °F72.0 °F67 %30.13 in9.0 miCalmClear
10:51 AM84.9 °F72.0 °F65 %30.12 in10.0 miVariable3.5 mphClear
11:51 AM89.1 °F70.0 °F53 %30.11 in10.0 miCalmClear
12:51 PM90.0 °F71.1 °F54 %30.10 in10.0 miVariable6.9 mphPartly Cloudy
1:51 PM90.0 °F71.1 °F54 %30.09 in10.0 miVariable3.5 mph17.3 mphScattered Clouds
2:51 PM91.0 °F69.1 °F48 %30.08 in10.0 miVariable3.5 mphScattered Clouds
3:51 PM90.0 °F70.0 °F52 %30.06 in10.0 miVariable4.6 mphClear
4:51 PM91.0 °F66.9 °F45 %30.05 in10.0 miVariable6.9 mph19.6 mphClear
5:51 PM89.1 °F69.1 °F52 %30.04 in10.0 miWNW (290°)8.1 mphClear
6:51 PM89.1 °F68.0 °F50 %30.04 in10.0 miWest (280°)8.1 mphClear
7:51 PM89.1 °F68.0 °F50 %30.03 in10.0 miVariable5.8 mphClear
8:51 PM88.0 °F68.0 °F51 %30.03 in10.0 miWest (270°)4.6 mphClear
9:51 PM87.1 °F68.0 °F53 %30.05 in10.0 miCalmClear
10:51 PM86.0 °F68.0 °F55 %30.06 in10.0 miCalmClear
11:51 PM84.9 °F70.0 °F61 %30.06 in10.0 miVariable6.9 mphClear
Hourly data recorded from KNYC, located miles away from New York - Central Park, New York







STORIES FROM OUR PARTNERS